sat.trackr.live / text

‹ back to catalog

STARLINK-34068

NORAD 63914 · 2025-095AA

PAYLOAD ACTIVE UNKNOWN

§ Identity

Operator
Country
US
Launch date
2025-05-10
Launch site
AFETR
Launch vehicle
Mass (kg)
RCS (m²)

Purposes: comms

External: N2YO · Heavens-Above · Gunter

§ Orbital elements

Epoch: 2026-05-25T03:39:43.458048Z

Period
94.27 min
Inclination
43.0006°
Eccentricity
0.0001143
Mean motion
15.27566249 rev/d
Perigee alt
482.3 km
Apogee alt
483.9 km
Semi-major
6,861.2 km
B*
4.0481e-4
RAAN
104.2282°
Arg perigee
240.0958°
Mean anomaly
119.9780°
Rev number
5,947

§ Raw data

STARLINK-340681 63914U 25095AA  26145.15258632  .00010889  00000+0  40481-3 0  99992 63914  43.0006 104.2282 0001143 240.0958 119.9780 15.27566249 59471

JSON: /api/v1/satellites/63914 · /tle

For live sub-satellite position, see the globe view (requires WebGL).

§ Visibility from observer

Set your observer location to see the next 7 days of passes ≥ 10°. The values pass through the URL so the page stays shareable.

No JS? Fill the form by hand. The geolocation button needs JavaScript.